SM7GXQ Weather Reports


time (UTC)temp
C
wind
direction
speed
KPH
gust
KPH
rain 1hr
cm
rain 24hr
cm
rain mn
cm
humidity
%
barometer
mb
20260503034504 12 174 1.6 4.8 0.00 0.00 0.00 73 1008.7
20260503031505 12 173 1.6 3.2 0.00 0.00 0.00 70 1008.7
20260503030013 13 189 1.6 4.8 0.00 0.00 0.00 68 1008.7
20260503024504 13 190 1.6 4.8 0.00 0.00 0.00 67 1009.0
20260503021504 14 182 3.2 8.0 0.00 0.00 0.00 65 1009.0
20260503014504 14 175 3.2 8.0 0.00 0.00 0.00 65 1009.3
20260503001504 13 173 3.2 11.3 0.00 0.00 0.00 67 1009.9
20260502231503 13 192 1.6 8.0 0.00 0.00 0.00 69 1010.3
20260502230004 13 175 1.6 4.8 0.00 0.00 0.00 68 1010.6
20260502220004 14 184 3.2 9.7 0.00 0.00 0.00 66 1010.6
20260502214504 14 196 4.8 8.0 0.00 0.00 0.00 64 1010.7
20260502213005 15 182 3.2 12.9 0.00 0.00 0.00 62 1010.8
20260502201504 16 193 9.7 24.1 0.00 0.00 0.00 61 1011.3
20260502200004 16 203 9.7 29.0 0.00 0.00 0.00 60 1011.3
20260502184504 16 197 9.7 24.1 0.00 0.00 0.00 60 1011.0
20260502183005 17 198 14.5 27.4 0.00 0.00 0.00 60 1011.0
20260502181504 17 196 9.7 29.0 0.00 0.00 0.00 59 1011.1
20260502161504 20 196 16.1 35.4 0.00 0.00 0.00 46 1011.5
20260502151503 21 180 12.9 29.0 0.00 0.00 0.00 46 1012.4
20260502121503 20 204 14.5 32.2 0.00 0.00 0.00 45 1015.2
20260502110005 21 205 14.5 33.8 0.00 0.00 0.00 41 1016.3
20260502103004 21 208 12.9 25.7 0.00 0.00 0.00 42 1016.5
20260502101503 21 207 12.9 33.8 0.00 0.00 0.00 43 1016.5
20260502071503 16 202 6.4 11.3 0.00 0.00 0.00 56 1019.0
20260502064503 15 201 6.4 16.1 0.00 0.00 0.00 58 1019.1
20260502063004 14 207 4.8 12.9 0.00 0.00 0.00 60 1019.2
20260502060004 13 220 6.4 14.5 0.00 0.00 0.00 62 1019.2
20260502054504 13 209 8.0 14.5 0.00 0.00 0.00 66 1019.3
20260502051504 12 194 4.8 11.3 0.00 0.00 0.00 72 1019.2
20260502050004 12 185 4.8 8.0 0.00 0.00 0.00 71 1019.2
20260502043005 11 187 3.2 4.8 0.00 0.00 0.00 69 1019.2
20260502040004 11 187 1.6 4.8 0.00 0.00 0.00 73 1019.3